Location: ?ejeti?ky
(50.4060°N, 14.9016°E)
Time: 22:17:49
(UTC+00:00)

X-37B - Pass Details

Date: 09 December 2021
Orbit: 334 x 337 km, 45.0° (Epoch: 11 January)

Event Time Altitude Azimuth Distance (km) Brightness Sun altitude
Rises 16:20:43 0° 216° (SW) 2,097 5.3 -12.6°
Reaches altitude 10° 16:23:26 10° 187° (S) 1,263 3.5 -13.0°
Maximum altitude 16:24:52 13° 157° (SSE) 1,104 2.8 -13.2°
Enters shadow 16:26:00 11° 131° (SE) 1,209 2.8 -13.3°
